When you browse on this site, cookies collect data to enhance your experience and personalize the content and advertising you see.
Visit our Privacy Policy to learn more. By continuing to use the site, you agree to this use of cookies and data.
  • în România
  • Lista ţărilor
  • Pe 7 zile
  • Temperatura apei
  • Hartă satelitară
  • Meteo pe hartă
  • Widget-uri
  • user-avatar
    Intrare

    Meteo pe oră la Glyadkovka

    Astăzi, 19 Februarie, Marţi

    Timp Temperatura Precipitaţii Vânt Presiune Umiditate
    00:00 -15°C° 0 mm 7 m/s 732 mmHg 82%
    01:00 -17°C° 0 mm 7 m/s 733 mmHg 83%
    02:00 -17°C° 0 mm 7 m/s 733 mmHg 83%
    03:00 -18°C° 0 mm 7 m/s 734 mmHg 83%
    04:00 -19°C° 0 mm 7 m/s 735 mmHg 83%
    05:00 -19°C° 0 mm 7 m/s 735 mmHg 84%
    06:00 -20°C° 0 mm 7 m/s 736 mmHg 84%
    07:00 -20°C° 0 mm 7 m/s 737 mmHg 84%
    08:00 -20°C° 0 mm 7 m/s 738 mmHg 85%
    09:00 -19°C° 0 mm 7 m/s 738 mmHg 85%
    10:00 -18°C° 0 mm 7 m/s 739 mmHg 84%
    11:00 -18°C° 0 mm 7 m/s 739 mmHg 82%
    12:00 -16°C° 0 mm 6 m/s 739 mmHg 81%
    13:00 -15°C° 0 mm 6 m/s 740 mmHg 81%
    14:00 -14°C° 0 mm 5 m/s 740 mmHg 81%
    15:00 -14°C° 0 mm 5 m/s 740 mmHg 81%
    16:00 -15°C° 0 mm 5 m/s 740 mmHg 83%
    17:00 -15°C° 0 mm 4 m/s 740 mmHg 85%
    18:00 -16°C° 0 mm 4 m/s 740 mmHg 86%
    19:00 -16°C° 0 mm 4 m/s 740 mmHg 87%
    20:00 -15°C° 0 mm 5 m/s 740 mmHg 88%
    21:00 -15°C° 0 mm 5 m/s 739 mmHg 88%
    22:00 -15°C° 0 mm 6 m/s 739 mmHg 88%
    23:00 -15°C° 0 mm 6 m/s 739 mmHg 87%

    Mâine, 20 Februarie, Miercuri

    Timp Temperatura Precipitaţii Vânt Presiune Umiditate
    00:00 -14°C° 0 mm 6 m/s 738 mmHg 87%
    01:00 -14°C° 0 mm 6 m/s 738 mmHg 87%
    02:00 -12°C° 0 mm 6 m/s 738 mmHg 87%
    03:00 -12°C° 0 mm 6 m/s 738 mmHg 88%
    04:00 -12°C° 0 mm 6 m/s 738 mmHg 89%
    05:00 -14°C° 0 mm 6 m/s 737 mmHg 89%
    06:00 -14°C° 0 mm 6 m/s 737 mmHg 90%
    07:00 -14°C° 0 mm 6 m/s 737 mmHg 90%
    08:00 -12°C° 0 mm 6 m/s 737 mmHg 89%
    09:00 -12°C° 0 mm 6 m/s 737 mmHg 88%
    10:00 -11°C° 0 mm 6 m/s 736 mmHg 87%
    11:00 -10°C° 0 mm 6 m/s 736 mmHg 86%
    12:00 -9°C° 0 mm 7 m/s 736 mmHg 85%
    13:00 -8°C° 0 mm 7 m/s 736 mmHg 84%
    14:00 -8°C° 0 mm 7 m/s 735 mmHg 84%
    15:00 -8°C° 0 mm 7 m/s 735 mmHg 84%
    16:00 -8°C° 0 mm 7 m/s 735 mmHg 84%
    17:00 -9°C° 0 mm 7 m/s 734 mmHg 85%
    18:00 -9°C° 0 mm 7 m/s 734 mmHg 85%
    19:00 -9°C° 0 mm 7 m/s 734 mmHg 86%
    20:00 -9°C° 0 mm 7 m/s 734 mmHg 88%
    21:00 -9°C° 0 mm 7 m/s 734 mmHg 89%
    22:00 -8°C° 0 mm 7 m/s 733 mmHg 90%
    23:00 -8°C° 0 mm 6 m/s 733 mmHg 91%

    Poimâine, 21 Februarie, Joi

    Timp Temperatura Precipitaţii Vânt Presiune Umiditate
    00:00 -8°C° 0 mm 6 m/s 732 mmHg 92%
    01:00 -6°C° 0 mm 6 m/s 732 mmHg 93%
    02:00 -6°C° 0 mm 6 m/s 732 mmHg 93%
    03:00 -6°C° 0 mm 6 m/s 731 mmHg 93%
    04:00 -6°C° 0.1 mm 6 m/s 731 mmHg 94%
    05:00 -6°C° 0.1 mm 6 m/s 731 mmHg 94%
    06:00 -6°C° 0.1 mm 6 m/s 731 mmHg 94%
    07:00 -5°C° 0.1 mm 6 m/s 730 mmHg 94%
    08:00 -5°C° 0.1 mm 6 m/s 730 mmHg 94%
    09:00 -5°C° 0.1 mm 5 m/s 730 mmHg 94%
    10:00 -4°C° 0.1 mm 5 m/s 730 mmHg 94%
    11:00 -4°C° 0.1 mm 5 m/s 729 mmHg 95%
    12:00 -2°C° 0.1 mm 5 m/s 729 mmHg 95%
    13:00 -2°C° 0.1 mm 5 m/s 728 mmHg 96%
    14:00 -3°C° 0.1 mm 6 m/s 728 mmHg 96%
    15:00 -3°C° 0.1 mm 6 m/s 727 mmHg 96%
    16:00 -3°C° 0.2 mm 6 m/s 727 mmHg 95%
    17:00 -3°C° 0.2 mm 6 m/s 727 mmHg 94%
    18:00 -3°C° 0.2 mm 6 m/s 726 mmHg 93%
    19:00 -4°C° 0.4 mm 6 m/s 726 mmHg 91%
    20:00 -5°C° 0.4 mm 6 m/s 726 mmHg 90%
    21:00 -6°C° 0.4 mm 6 m/s 726 mmHg 88%
    22:00 -7°C° 0 mm 5 m/s 726 mmHg 90%
    23:00 -10°C° 0 mm 5 m/s 726 mmHg 93%

    22 Februarie, Vineri

    Timp Temperatura Precipitaţii Vânt Presiune Umiditate
    00:00 -10°C° 0 mm 4 m/s 725 mmHg 95%
    01:00 -9°C° 0.2 mm 4 m/s 726 mmHg 95%
    02:00 -8°C° 0.2 mm 4 m/s 726 mmHg 95%
    03:00 -8°C° 0.2 mm 4 m/s 726 mmHg 94%
    04:00 -8°C° 0.3 mm 5 m/s 726 mmHg 93%
    05:00 -8°C° 0.3 mm 6 m/s 726 mmHg 92%
    06:00 -8°C° 0.3 mm 7 m/s 726 mmHg 91%
    07:00 -8°C° 0.1 mm 7 m/s 726 mmHg 90%
    08:00 -8°C° 0.1 mm 7 m/s 726 mmHg 90%
    09:00 -8°C° 0.1 mm 7 m/s 727 mmHg 89%
    10:00 -8°C° 0 mm 7 m/s 728 mmHg 90%
    11:00 -8°C° 0 mm 7 m/s 728 mmHg 90%
    12:00 -8°C° 0 mm 7 m/s 729 mmHg 90%
    13:00 -8°C° 0.1 mm 6 m/s 730 mmHg 90%
    14:00 -9°C° 0.1 mm 6 m/s 730 mmHg 90%
    15:00 -9°C° 0.1 mm 6 m/s 731 mmHg 89%
    16:00 -10°C° 0 mm 6 m/s 732 mmHg 89%
    17:00 -11°C° 0 mm 5 m/s 732 mmHg 89%
    18:00 -13°C° 0 mm 5 m/s 733 mmHg 89%
    19:00 -14°C° 0.1 mm 5 m/s 734 mmHg 90%
    20:00 -14°C° 0.1 mm 5 m/s 734 mmHg 90%
    21:00 -15°C° 0.1 mm 5 m/s 735 mmHg 91%
    22:00 -16°C° 0.1 mm 4 m/s 736 mmHg 92%
    23:00 -17°C° 0.1 mm 4 m/s 736 mmHg 92%

    23 Februarie, Sâmbătă

    Timp Temperatura Precipitaţii Vânt Presiune Umiditate
    00:00 -17°C° 0.1 mm 3 m/s 737 mmHg 93%
    01:00 -18°C° 0 mm 3 m/s 737 mmHg 94%
    02:00 -19°C° 0 mm 3 m/s 738 mmHg 95%
    03:00 -21°C° 0 mm 3 m/s 738 mmHg 95%
    04:00 -21°C° 0 mm 3 m/s 738 mmHg 96%
    05:00 -22°C° 0 mm 3 m/s 739 mmHg 96%
    06:00 -23°C° 0 mm 3 m/s 739 mmHg 96%
    07:00 -22°C° 0 mm 3 m/s 740 mmHg 96%
    08:00 -20°C° 0 mm 2 m/s 740 mmHg 95%
    09:00 -19°C° 0 mm 2 m/s 741 mmHg 95%
    10:00 -19°C° 0 mm 3 m/s 741 mmHg 93%
    11:00 -18°C° 0 mm 3 m/s 741 mmHg 92%
    12:00 -17°C° 0 mm 3 m/s 742 mmHg 90%
    13:00 -17°C° 0 mm 3 m/s 742 mmHg 90%
    14:00 -16°C° 0 mm 3 m/s 742 mmHg 89%
    15:00 -16°C° 0 mm 3 m/s 742 mmHg 88%
    16:00 -17°C° 0 mm 3 m/s 742 mmHg 90%
    17:00 -17°C° 0 mm 2 m/s 742 mmHg 91%
    18:00 -18°C° 0 mm 2 m/s 743 mmHg 93%
    19:00 -18°C° 0 mm 2 m/s 743 mmHg 93%
    20:00 -18°C° 0 mm 2 m/s 743 mmHg 93%
    21:00 -19°C° 0 mm 2 m/s 744 mmHg 93%
    22:00 -19°C° 0 mm 2 m/s 744 mmHg 94%
    23:00 -20°C° 0 mm 2 m/s 744 mmHg 94%

    24 Februarie, Duminică

    Timp Temperatura Precipitaţii Vânt Presiune Umiditate
    00:00 -20°C° 0 mm 2 m/s 744 mmHg 94%
    01:00 -20°C° 0 mm 2 m/s 744 mmHg 94%
    02:00 -21°C° 0 mm 2 m/s 744 mmHg 94%
    03:00 -21°C° 0 mm 2 m/s 745 mmHg 94%
    04:00 -21°C° 0 mm 2 m/s 745 mmHg 94%
    05:00 -21°C° 0 mm 2 m/s 745 mmHg 94%
    06:00 -21°C° 0 mm 2 m/s 745 mmHg 94%
    07:00 -20°C° 0 mm 2 m/s 745 mmHg 94%
    08:00 -19°C° 0 mm 2 m/s 746 mmHg 93%
    09:00 -19°C° 0 mm 2 m/s 746 mmHg 92%
    10:00 -17°C° 0 mm 2 m/s 746 mmHg 91%
    11:00 -16°C° 0 mm 2 m/s 746 mmHg 90%
    12:00 -15°C° 0 mm 2 m/s 746 mmHg 88%
    13:00 -12°C° 0 mm 1 m/s 746 mmHg 88%
    14:00 -12°C° 0 mm 1 m/s 746 mmHg 88%
    15:00 -11°C° 0 mm 1 m/s 745 mmHg 88%
    16:00 -13°C° 0 mm 1 m/s 745 mmHg 90%
    17:00 -14°C° 0 mm 1 m/s 745 mmHg 92%
    18:00 -16°C° 0 mm 1 m/s 745 mmHg 94%
    19:00 -16°C° 0 mm 1 m/s 744 mmHg 93%
    20:00 -16°C° 0 mm 1 m/s 744 mmHg 92%
    21:00 -16°C° 0 mm 1 m/s 744 mmHg 92%
    22:00 -17°C° 0 mm 1 m/s 743 mmHg 91%
    23:00 -19°C° 0 mm 2 m/s 743 mmHg 91%
    Arată mai mult